User: anonymous   Login
Location: Newsoms
(36.6240°N, 77.1250°W)
Time: 16:41:42
(UTC-04:00)
Language:

BREEZE-M DEB (TANK) - Orbit

View from above orbital plane
View from above orbital plane
View from above satellite
View from above satellite

Ground track
Ground track

The orbit data is extracted from the following two-line orbital elements,

1 29649U 06056B   17142.94010925 -.00000505 +00000-0 -53871-4 0  9992
2 29649 049.4783 252.1759 5365636 145.6122 265.2139 04.99550920186526
Epoch (UTC): 22 May 2017 22:33:45
Eccentricity: 0.5365636
inclination: 49.4783°
perigee height: 321 km
apogee height: 15832 km
right ascension of ascending node: 252.1759°
argument of perigee: 145.6122°
revolutions per day: 4.99550920
mean anomaly at epoch: 265.2139°
orbit number at epoch: 18652

The dashed part of the orbit path shows where the satellite is in the earth's shadow,  

DLR